Zurück zum Katalog

FENGYUN 1C DEB

AktivPO
NORAD 31071·DEBRIS·🇨🇳 China

Gestartet May 10, 1999 von Taiyuan Satellite Launch Center

Loading…

Nächste Überflüge (nächste 24 Stunden)

TLE

AktuellSource: Space-Track

Epoche: Sep 13, 2026, 12:54 UTC

1 31071U 99025BFR 26256.53793314  .00002970  00000-0  69222-3 0  9995
2 31071  99.0353   0.7855 0055174 172.9298 187.2687 14.54730110694877

Verfolge FENGYUN 1C DEB in Echtzeit mit AllMySat

Download on the App Store